002  
ASUS46 KSTO 232315  
RWRCA  
 
NORTHERN AND CENTRAL CA REGIONAL WEATHER ROUNDUP  
NATIONAL WEATHER SERVICE SACRAMENTO CA  
400 PM PDT SUN SEP 23 2018  
 
NOTE: FAIR INDICATES FEW OR NO CLOUDS BELOW 12,000 FEET WITH NO  
SIGNIFICANT WEATHER AND/OR S TO VISIBILITY
.  
 
CAZ001-003-240000-  
NORTHWEST AREA  
 
CITY SKY/WX TMP DP RH WIND PRES REMARKS
 
CRESCENT CITY SUNNY 59 49 69 N25G39 29.97F  
UKIAH SUNNY 88 34 14 NW12G17 29.82F  

 
 
CAZ006-505>513-240000-  
BAY AREA  
 
CITY SKY/WX TMP DP RH WIND PRES REMARKS
 
SANTA ROSA SUNNY 85 44 23 SE9 29.81F  
SAN RAFAEL N/A 74 MM MM MISG  
NAPA SUNNY 72 55 55 SW14 29.84F  
CONCORD SUNNY 87 44 22 NW14 29.82F  
OAKLAND CITY N/A 71 MM MM MISG  
OAKLAND MOSUNNY 67 53 61 W13 29.88S  
SAN FRAN CITY N/A 63 MM 64 MISG  
SAN FRAN ARPT MOSUNNY 67 49 52 W15 29.87S  
LIVERMORE SUNNY 84 34 16 NW14 29.83S  
HAYWARD SUNNY 71 52 50 W13 29.86F  
REDWOOD CITY N/A 81 MM 19 MISG  
MOFFETT ARPT SUNNY 72 53 51 N12 29.86F  
SAN JOSE ARPT MOSUNNY 77 55 46 NW15 29.85S  

 
CAZ034-037-514>518-240000-  
CENTRAL COAST  
 
CITY SKY/WX TMP DP RH WIND PRES REMARKS
 
WATSONVILLE SUNNY 65 54 67 S7 29.88F  
SALINAS SUNNY 66 53 63 NW14 29.88S  
MONTEREY SUNNY 64 53 67 W9 29.90F  
SAN LUIS OBISP SUNNY 73 52 47 W6 29.85F  
SANTA MARIA SUNNY 70 56 61 NW9 29.87F  

 
CAZ015-016-240000-  
NORTHERN SACRAMENTO VALLEY  
 
CITY SKY/WX TMP DP RH WIND PRES REMARKS
 
REDDING SUNNY 91 22 8 VRB3 29.80F  
RED BLUFF SUNNY 90 38 16 E7 29.81F  
OROVILLE SUNNY 87 42 20 CALM 29.83F  

 
CAZ016>018-240000-  
SOUTHERN SACRAMENTO VALLEY  
 
CITY SKY/WX TMP DP RH WIND PRES REMARKS
 
AUBURN SUNNY 86 37 17 VRB7 29.87F  
LINCOLN FAIR 86 43 22 W5 29.81F  
MARYSVILLE SUNNY 87 44 22 CALM 29.81F  
SAC INTL ARPT MOSUNNY 86 47 25 SE3 29.80F  
MATHER AIRPORT SUNNY 88 43 20 SW3 29.80  
DOWNTOWN SAC N/A 89 MM MM MISG  
SAC EXEC ARPT SUNNY 87 47 24 SW6 29.81F  
VACAVILLE SUNNY 89 37 16 S7 29.82F  

 
CAZ019>021-240000-  
SAN JOAQUIN VALLEY  
 
CITY SKY/WX TMP DP RH WIND PRES REMARKS
 
STOCKTON SUNNY 91 36 14 NW8 29.80F  
MODESTO SUNNY 91 41 17 N8 29.79F  
MERCED SUNNY 92 41 17 NW7 29.78F  
LEMOORE PTSUNNY 94 40 15 N9 29.78F HX 90  
FRESNO MOSUNNY 94 42 16 W8 29.78F HX 90  
HANFORD SUNNY 95 42 16 NW8 29.78F HX 91  
PORTERVILLE N/A 94 48 20 NW8 29.79F HX 90  
BAKERSFIELD SUNNY 95 43 16 NW13 29.77F HX 91  

 
CAZ011-012-071-240000-  
NORTHERN MOUNTAINS  
 
CITY SKY/WX TMP DP RH WIND PRES REMARKS
 
YREKA SUNNY 74 26 16 N7 30.01F  
MOUNT SHASTA SUNNY 69 35 28 NW7 30.01F  
ALTURAS SUNNY 72 22 15 N9 30.02F  

 
CAZ011-012-071-240000-  
SIERRA NEVADA MTNS  
 
CITY SKY/WX TMP DP RH WIND PRES REMARKS
 
BLUE CANYON SUNNY 69 22 16 S9 30.08F  
TRUCKEE SUNNY 72 18 13 SW13G22 30.08F  
TAHOE VLY ARPT SUNNY 70 21 15 S12G20 30.09S  
MAMMOTH LAKES FAIR 71 22 16 NW14G28 30.14S  

 
 
 
CLICK HERE TO GO TO PREVIOUS BULLETINS.

The Nexlab CA Page Main Text Page